Regional Weather Roundup
Issued by NWS

Home | Current Version | Previous Version | Graphics & Text | Print | Product List | Glossary On
Versions: 1 2 3 4 5 6 7 8 9 10 11 12 13 14 15 16 17 18 19 20 21 22 23 24 25 26 27 28 29 30 31 32 33 34 35 36 37 38 39 40 41 42 43 44 45 46 47 48 49 50
000
ASUS43 KLSX 282059
RWRMO

WEATHER SUMMARY FOR MISSOURI
NATIONAL WEATHER SERVICE SPRINGFIELD MO
300 PM CST SAT FEB 28 2015

NOTE: "FAIR" INDICATES FEW OR NO CLOUDS BELOW 12,000 FEET WITH NO
       SIGNIFICANT WEATHER AND/OR OBSTRUCTIONS TO VISIBILITY.
       CURRENT SKY AND/OR WEATHER CONDITIONS ARE NOT AVAILABLE FOR
       CHILLICOTHE AND FARMINGTON.

MOZ001>031-035>038-043-044-053-054-282200-
...NORTHERN AND WESTERN MISSOURI...

CITY           SKY/WX    TMP DP  RH WIND       PRES   REMARKS
KANSAS CTY INT LGT SNOW  23  19  85 SE7       30.40F VSB 1   WCI  15
KANSAS C DTWN  LGT SNOW  24  18  77 SE6       30.42F WCI  17
LEE`S SUMMIT   CLOUDY    22  18  85 SE5       30.42F WCI  16
ST JOSEPH      LGT SNOW  23  19  85 SE8       30.42F FOG     WCI  14
CHILLICOTHE      N/A     24  19  81 SE7       30.46F WCI  16
KIRKSVILLE     LGT SNOW  21  17  84 SE9       30.46F FOG     WCI  11

$$
MOZ066>068-077>081-088>096-101>105-282200-
...SOUTHWEST MISSOURI...

CITY           SKY/WX    TMP DP  RH WIND       PRES   REMARKS
SPRINGFIELD    LGT SNOW  25  20  81 SE9       30.37S VSB 3/4 WCI  15
JOPLIN         SNOW      24  21  88 E7        30.38F VSB 1/2 WCI  16

$$
MOZ032>034-039>042-045>050-055>058-069>072-282200-
...CENTRAL MISSOURI...

CITY           SKY/WX    TMP DP  RH WIND       PRES   REMARKS
COLUMBIA       LGT SNOW  23  20  88 SE7       30.44F VSB 3/4 WCI  15
JEFFERSON CITY SNOW      24  21  88 E7        30.47F VSB 1/2 WCI  16
ROLLA          SNOW      23  20  88 E7        30.41F VSB 1/2 WCI  15
SEDALIA        LGT SNOW  24  19  81 SE5       30.43F VSB 3/4 WCI  18
OSAGE BEACH    CLOUDY    25  19  80 E5        30.42F VSB 3/4 WCI  19

$$
MOZ051-052-059>065-282200-
...EAST CENTRAL MISSOURI...

CITY           SKY/WX    TMP DP  RH WIND       PRES   REMARKS
ST LOUIS INTL  NOT AVBL
SPIRIT OF STL  SNOW      25  21  85 E3        30.50F VSB 1/2
ST CHARLES     LGT SNOW  23  20  88 E6        30.52F VSB 3/4 WCI  16

$$
MOZ072>076-082>087-097>100-106>115-282200-
...SOUTH CENTRAL AND SOUTHEAST MISSOURI...

CITY           SKY/WX    TMP DP  RH WIND       PRES   REMARKS
CAPE GIRARDEAU CLOUDY    32  18  56 NW3       30.49F
FARMINGTON     CLOUDY    25  23  93 SE6       30.48F VSB 1/2 WCI  18
POPLAR BLUFF   CLOUDY    29  18  63 NE7       30.48F WCI  22
WEST PLAINS    LGT SNOW  24  19  81 E7        30.40F VSB 3/4 WCI  16

$$


USA.gov is the U.S. government's official web portal to all federal, state and local government web resources and services.